Location: Unspecified
(50.7693°N, 0.0000°E)
Time: 15:05:56
(UTC+00:00)

SR - Pass Details

Date: 01 July 2019
Orbit: 581 x 875 km, 66.7° (Epoch: 16 July)

Event Time Altitude Azimuth Distance (km) Brightness Sun altitude
Rises 02:29:46 0° 230° (SW) 2,793 - -9.4°
Reaches altitude 10° 02:32:00 10° 235° (SW) 1,904 - -9.2°
Exits shadow 02:32:04 10° 236° (SW) 1,875 ? -9.2°
Maximum altitude 02:36:09 53° 313° (NW) 741 ? -8.8°
Drops below altitude 10° 02:40:32 10° 31° (NNE) 2,003 ? -8.4°
Sets 02:42:57 0° 36° (NE) 2,955 ? -8.2°
